User: anonymous   Login
Location: Unspecified
(0.0000°N, 0.0000°E)
Time: 16:12:56
(UTC+00:00)
Language:

Vela 5A - Orbit

View from above orbital plane
View from above orbital plane
View from above satellite
View from above satellite

Ground track
Ground track

The orbit data is extracted from the following two-line orbital elements,

1 03954U 69046D   14326.18888490  .00000114  00000-0  00000+0 0   220
2 03954 056.1406 279.2212 7525984 085.1313 000.7991 00.21481615 35733
Epoch (UTC): 22 November 2014 04:31:59
Eccentricity: 0.7525984
inclination: 56.1406°
perigee height: 22757 km
apogee height: 200018 km
right ascension of ascending node: 279.2212°
argument of perigee: 85.1313°
revolutions per day: 0.21481615
mean anomaly at epoch: 0.7991°
orbit number at epoch: 3573

The dashed part of the orbit path shows where the satellite is in the earth's shadow,  

DLR